Flag for Mexico Weather past 2 weeks in Puerto Vallarta, Jalisco, Mexico

Now
84 °F

Cloudy.


Feels Like: 92 °F
Forecast: 78 / 88 °F
Wind: 6 mph from North

Location: Puerto Vallarta / Lic

Current Time: Jul 31, 2014 at 10:41:22 AM

Latest Report: Jul 31, 2014 at 9:47 AM


Visibility: 15 mi

Pressure: 29.90 "Hg

Humidity: 74%

Dew point: 75 °F

Location of Puerto VallartaLocation

Historic Weather in Puerto Vallarta — Graph

°F

Puerto Vallarta temperature yesterday

Maximum temperature yesterday: 91 °F (at 1:52 PM)
Minimum temperature yesterday: 79 °F (at 2:45 AM)
Average temperature yesterday: 85 °F

Past Weeks' High & Low Weather Summary

 TemperatureHumidityPressure
High95 °F (Jul 21, 2:44 PM)94% (Jul 23, 10:46 PM)30.00 "Hg (Jul 23, 10:46 PM)
Low72 °F (Jul 23, 10:46 PM)47% (Jul 20, 12:46 PM)29.73 "Hg (Jul 23, 6:50 PM)
Average84 °F73%29.90 "Hg
* Reported Jul 16 8:50 AM — Jul 31 8:51 AM, Puerto Vallarta, Weather by CustomWeather, © 2014

Note: Actual official high and low records may vary slightly from our data, if they occured in-between our weather recording intervals... More about our weather records

Advertising

Puerto Vallarta weather history for previous 24 hours

 ConditionsComfort  
Time TempWeatherWind HumidityBarometerVisibility
8:51 AM
Jul 31
81 °FMostly cloudy.No wind84%29.92 "Hg15 mi
7:50 AM81 °FOvercast.5 mph79%29.92 "Hg12 mi
6:48 AM81 °FOvercast.5 mph79%29.90 "Hg12 mi
5:47 AM81 °FOvercast.7 mph84%29.92 "Hg12 mi
2:47 AM81 °FPartly cloudy.No wind84%29.93 "Hg12 mi
12:47 AM82 °FPassing clouds.No wind84%29.93 "Hg12 mi
11:46 PM
Jul 30
84 °FPartly cloudy.No wind74%29.93 "Hg12 mi
10:45 PM84 °FMostly cloudy.No wind79%29.90 "Hg12 mi
9:46 PM86 °FMostly cloudy.No wind70%29.86 "Hg12 mi
6:53 PM88 °FBroken clouds.7 mph66%29.83 "Hg15 mi
5:45 PM90 °FBroken clouds.9 mph67%29.89 "Hg15 mi
3:50 PM91 °FBroken clouds.7 mph63%29.88 "Hg15 mi
2:50 PM91 °FScattered clouds.7 mph59%29.91 "Hg15 mi
1:52 PM91 °FScattered clouds.8 mph52%29.92 "Hg15 mi
12:52 PM90 °FScattered clouds.7 mph67%29.92 "Hg15 mi
11:50 AM88 °FPartly sunny.5 mph66%29.91 "Hg15 mi
10:47 AM84 °FPartly sunny.3 mph70%29.89 "Hg15 mi
Weather by CustomWeather, © 2014

See weather overviewHow to use our weather pages